Regional Weather Roundup
Issued by NWS

Home | Current Version | Previous Version | Graphics & Text | Print | Product List | Glossary On
Versions: 1 2 3 4 5 6 7 8 9 10 11 12 13 14 15 16 17 18 19 20 21 22 23 24 25 26 27 28 29 30 31 32 33 34 35 36 37 38 39 40 41 42 43 44 45 46 47 48 49 50
000
ASUS43 KDMX 270301
RWRIA

WEATHER ROUNDUP FOR IOWA
NATIONAL WEATHER SERVICE DES MOINES IA
1000 PM CDT WED JUL 26 2017

NOTE: "FAIR" INDICATES FEW OR NO CLOUDS BELOW 12,000 FEET WITH NO
SIGNIFICANT WEATHER AND/OR OBSTRUCTIONS TO VISIBILITY.

* - THESE STATIONS ARE NOT NWS STATIONS...THUS NOT UNDER NWS
QUALITY CONTROL.  THEY ALSO DO NOT REPORT WEATHER SUCH
AS PRECIPITATION OR FOG.

IAZ001>003-012>014-020>022-031>034-043>046-270400-
   NORTHWEST IOWA

CITY           SKY/WX    TMP DP  RH WIND       PRES   REMARKS
CARROLL *      CLEAR     72  72 100 NE3       30.01R
CHEROKEE *     CLEAR     74  67  78 N8        30.04R
DENISON *      CLEAR     73  72  94 N3        30.03R
ORANGE CITY *  CLEAR     72  64  78 N6        30.06R
SHELDON *      PTCLDY    66  63  88 N3        30.05R
SIOUX CITY     CLEAR     78  69  73 NE9       30.02R HX  80
SPENCER        CLEAR     71  63  75 N7        30.05R
STORM LAKE *   CLOUDY    73  70  88 N6        30.03R
$$

IAZ055>058-069>071-079>083-090>094-270400-
   SOUTHWEST IOWA

CITY           SKY/WX    TMP DP  RH WIND       PRES   REMARKS
ATLANTIC *     CLEAR     72  72 100 N3        29.99R
AUDUBON *      PTCLDY    73  70  88 CALM      30.02R
CLARINDA *     CLOUDY    75  75 100 CALM      30.01R FOG
COUNCIL BLFS * MOCLDY    73  73 100 CALM      30.00R
CRESTON *      CLOUDY    75  75 100 CALM      30.01R
HARLAN  *      CLEAR     72  72 100 N5        30.03R
LAMONI         CLOUDY    76  75  97 S3        29.99R
RED OAK *      CLOUDY    75  75 100 CALM      30.00R
SHENANDOAH *   CLOUDY    75  75 100 SE3       30.00R
$$

IAZ047>049-059>061-072>074-084-270400-
   CENTRAL IOWA

CITY           SKY/WX    TMP DP  RH WIND       PRES   REMARKS
AMES           PTCLDY    72  72 100 N6        29.98S
ANKENY *       CLOUDY    73  72  94 CALM      29.98S
BOONE *        MOCLDY    70  70 100 N6        29.99S
CHARITON *     CLOUDY    75  73  94 CALM      29.98R FOG
DES MOINES     CLOUDY    75  73  93 N5        29.97R
GRINNELL*      CLOUDY    73  71  92 CALM      30.00R
KNOXVILLE *    CLOUDY    77  72  83 NW7       29.97R
MARSHALLTOWN   CLOUDY    74  71  91 N8        29.97S
NEWTON *       MOCLDY    73  72  94 CALM      29.98S
PELLA *        RAIN      74  72  92 CALM      29.99R
PERRY *          N/A     73  72  98 N5        30.00R
$$

IAZ004>006-015-016-023>025-035-036-270400-
   NORTH CENTRAL IOWA

CITY           SKY/WX    TMP DP  RH WIND       PRES   REMARKS
ALGONA *       MOCLDY    73  70  88 N7        30.03R
CLARION *      CLOUDY    72  72 100 CALM      30.01
ESTHERVILLE    CLEAR     66  64  93 N6        30.04R
FORT DODGE *   MOCLDY    70  66  88 CALM      30.01S
MASON CITY     CLOUDY    73  70  90 CALM      30.03R
FOREST CITY *  MOCLDY    72  70  94 NW3       30.02R
WEBSTER CITY * FOG       68  66  94 CALM      29.98F VSB 1/4
IOWA FALLS *     N/A     70  68  93 N5        30.01S
$$

IAZ007>011-017>019-026>030-037>042-050>054-066-270400-
   NORTHEAST IOWA

CITY           SKY/WX    TMP DP  RH WIND       PRES   REMARKS
CHARLES CITY * CLOUDY    72  72 100 W3        30.01S
DECORAH *      CLOUDY    73  72  94 CALM      29.99S
DUBUQUE          N/A    N/A N/A N/A MISG      29.97S
MONTICELLO *   CLOUDY    72  72 100 CALM      29.96S
OELWEIN *      CLOUDY    73  72  94 N3        29.99S
WATERLOO       CLOUDY    74  69  85 NW7       29.97S
$$

IAZ064-065-067-068-078-270400-
   EAST CENTRAL IOWA

CITY           SKY/WX    TMP DP  RH WIND       PRES   REMARKS
DAVENPORT      CLOUDY    72  70  93 SW3       29.97F
IOWA CITY      CLOUDY    76  73  91 CALM      29.97S
MUSCATINE *    CLOUDY    73  72  94 CALM      29.96S
QUAD CITIES    CLOUDY    73  70  90 S3        29.95S
$$

IAZ062-063-075>077-085>089-095>099-270400-
   SOUTHEAST IOWA

CITY           SKY/WX    TMP DP  RH WIND       PRES   REMARKS
BURLINGTON     CLOUDY    74  74 100 SW5       29.96F
FAIRFIELD *    CLOUDY    75  72  88 NW5       29.96S
FORT MADISON * CLOUDY    73  73 100 CALM      29.97S
KEOKUK *       CLOUDY    75  73  94 CALM      29.95S
OSKALOOSA *    CLOUDY    76  71  86 CALM      29.97S
OTTUMWA        CLOUDY    77  73  87 CALM      29.96S
$$

ABBREVIATIONS USED IN REMARKS
   TC - TEMPERATURES IN CELSIUS
  WCI - WIND CHILL INDEX
   HX - HEAT INDEX
  VSB - VISIBILITY
$$




USA.gov is the U.S. government's official web portal to all federal, state and local government web resources and services.